Regional Weather Roundup
Issued by NWS Charleston, SC

Current Version | Previous Version | Graphics & Text | Print | Product List | Glossary On
Versions: 1 2 3 4 5 6 7 8 9 10 11 12 13 14 15 16 17 18 19 20 21 22 23 24 25 26 27 28 29 30 31 32 33 34 35 36 37 38 39 40 41 42 43 44 45 46 47 48 49 50
589 ASUS42 KCHS 241212 RWRCHS REGIONAL WEATHER ROUNDUP NATIONAL WEATHER SERVICE CHARLESTON SC 800 AM EDT MON APR 24 2017 NOTE: "FAIR" INDICATES FEW OR NO CLOUDS BELOW 12,000 FEET WITH NO SIGNIFICANT WEATHER AND/OR OBSTRUCTIONS TO VISIBILITY. NOT ALL STATIONS ARE QUALITY CONTROLLED. USE DATA WITH CAUTION... ESPECIALLY DEWPOINT OBSERVATIONS. SCZ027-030-031-034>040-042>050-241300- ...SOUTHEAST SOUTH CAROLINA... CITY SKY/WX TMP DP RH WIND PRES REMARKS N CHARLESTON HVY RAIN 69 67 93 SE17 29.68S VSB 3/4 6HR MIN TEMP: 69; 6HR MAX TEMP: 74; 6HR PCP: 0.37; WATERFRONT PRK N/A 69 69 100 S17 29.66F JOHNS ISLAND RAIN 70 68 94 SE9G25 29.68S VSB 1/2 PINOPOLIS N/A 66 64 94 NE10 29.61S MONCKS CORNER TSTM 64 64 100 NE6 29.70R SUMMERVILLE CLOUDY 68 68 100 CALM 29.69F BEAUFORT MCAS PTSUNNY 71 70 96 W3 29.67S 6HR MIN TEMP: 70; 6HR MAX TEMP: 74; 6HR PCP: 0.01; BEAUFORT ARPT PTSUNNY 72 68 88 W6 29.67S HILTON HEAD IS MOSUNNY 72 70 94 SW8 29.67F WALTERBORO CLOUDY 64 64 100 CALM 29.69F ALLENDALE CLOUDY 64 64 100 NW5 29.68R FOG ...SOUTHERN MIDLANDS AND PEE DEE... CITY SKY/WX TMP DP RH WIND PRES REMARKS GEORGETOWN CLOUDY 66 64 94 NE7 29.73S KINGSTREE TSTM 59 59 100 NE7 29.74R ORANGEBURG RAIN 62 61 96 NE10 29.71R FOG 6HR MIN TEMP: 62; 6HR MAX TEMP: 67; 6HR PCP: 1.15; BARNWELL CLOUDY 63 63 100 N8 29.70R AIKEN CLOUDY 55 54 94 N9 29.75S FOG MANNING HVY RAIN 59 59 100 NE9G21 29.72F COLUMBIA CLOUDY 61 59 93 N6 29.72S 6HR MIN TEMP: 59; 6HR MAX TEMP: 61; 6HR PCP: 0.72; SUMTER LGT RAIN 61 59 94 NE14 29.71S 6HR MIN TEMP: 61; 6HR MAX TEMP: 62; 6HR PCP: 1.39; FLORENCE CLOUDY 58 58 100 NE14 29.77S 6HR MIN TEMP: 58; 6HR MAX TEMP: 60; 6HR PCP: 0.42; MYRTLE BEACH PTSUNNY 66 64 94 NW6 29.76R N MYRTLE BEACH CLOUDY 67 66 97 NE6 29.75R 6HR MIN TEMP: 63; 6HR MAX TEMP: 70; 6HR PCP: 0.47; $$ GAZ063-065-086>088-099>101-113>116-118-119-134>141-150-241300- ...SOUTHEAST GEORGIA... CITY SKY/WX TMP DP RH WIND PRES REMARKS SAVANNAH ARPT NOT AVBL HUNTER AAF MOSUNNY 69 69 100 SW3 29.65S 6HR MIN TEMP: 68; 6HR MAX TEMP: 73; FORT STEWART CLOUDY 65 64 94 W9 29.67R 6HR MIN TEMP: 65; 6HR MAX TEMP: 69; STATESBORO LGT RAIN 67 67 100 CALM 29.68R SYLVANIA NOT AVBL CLAXTON CLOUDY N/A N/A N/A SW6 29.69S ...CSRA...CENTRAL AND FAR SOUTHEAST GEORGIA... CITY SKY/WX TMP DP RH WIND PRES REMARKS THOMSON TSTM 54 53 97 E9 29.77F AUGUSTA-BUSH CLOUDY 60 57 89 NE8 29.69F 6HR MIN TEMP: 59; 6HR MAX TEMP: 63; 6HR PCP: 0.08; AUGUSTA-DANIEL CLOUDY 58 54 86 N12 29.71F SWAINSBORO DRIZZLE 61 61 100 NW8 29.71R VIDALIA CLOUDY 63 61 94 W6 29.71S EASTMAN CLOUDY 61 61 100 CALM 29.74S HAZLEHURST CLOUDY 60 60 100 W3 29.71S ALMA CLOUDY 60 60 100 W6 29.72R 6HR MIN TEMP: 60; 6HR MAX TEMP: 69; 6HR PCP: 0.11; WAYCROSS SUNNY 64 62 95 W6 29.72S JESUP CLOUDY 64 59 82 W6 29.72R BAXLEY PTSUNNY 63 63 100 W3 29.71S BRUNSWICK CLOUDY 68 66 94 W8 29.71R THUNDER SAINT SIMONS CLOUDY 69 65 86 W9 29.69S 6HR MIN TEMP: 69; 6HR MAX TEMP: 74; $$ SCZ027-028-034-036>038-045-046-048>050-GAZ119-141-241300- ...LAKE AND SUPPLEMENTAL COASTAL OBSERVATIONS... STATION/POSITION TIME TEMP WIND PRES WAVE SWELL AIR SEA DIR/SP/G HT/PER HT/PER/DIR (UTC) (F) (DEG/KT/KT) (MB) (FT/S) (FT/S/D) WINYAH BAY 1045 71 160/ 14 1006.0 LAKE MURRAY 1120 57 360/ 4/ 8 1006.8 ACE BASIN NERRS 1045 73 180/ 2 1004.0 FORT PULASKI 1148 71 74 250/ 7/ 10 1005.2R SAPELO ISLAND 1100 71 220/ 10 1005.0 $$ ANZ835-935-AMZ111-154-330-350-352-354-370-450-454-472-241300- ...C-MAN AND BUOY OBSERVATIONS... STATION/POSITION TIME TEMP WIND PRES WAVE SWELL AIR SEA DIR/SP/G HT/PER HT/PER/DIR (UTC) (F) (DEG/KT/KT) (MB) (FT/S) (FT/S/D) BUOY 41004 1150 74 74 150/ 21/ 25 1005.8S 8/ 7 2/130/11 BUOY 41008 1050 72 71 200/ 14/ 16 1004.5 5/ 6 2/ 90/12 FOLLY BEACH CMAN 1100 71 170/ 22/ 26 1006.0F CAPERS NEARSHORE 1108 74 72 170/ 16/ 21 1005.1S FRIPP NEARSHORE 1108 72 72 210/ 16/ 19 1004.6R STATION/POSITION TIME TEMP WIND PRES WAVE SWELL AIR SEA DIR/SP/G HT/PER HT/PER/DIR (UTC) (F) (DEG/KT/KT) (MB) (FT/S) (FT/S/D) 5E ST. MARYS GA 1130 73 N/A 4/ 5 2/ 80/12 FRYING PAN BUOY 1150 70 75 130/ 23/ 31 1008.1R 7/ 7 2/ 90/12 BUOY 41025 1150 77 78 150/ 17/ 21 1011.4S 8/11 7/ 60/11 CAPE LOOKOUT NC 1100 69 90/ 3/ 4 1010.0R BUOY 41002 1150 72 75 130/ 25/ 31 1010.2S 7/ 7 2/ 60/11 BUOY 41010 1150 75 78 150/ 2/ 4 1006.0R 7/ 8 7/130/ 8 ST AUGUSTINE FL 1200 71 74 240/ 6/ 7 1007.3R $$

USA.gov is the U.S. government's official web portal to all federal, state and local government web resources and services.